GW5113 Weather Reports


time (UTC)temp
C
wind
direction
speed
KPH
gust
KPH
rain 1hr
cm
rain 24hr
cm
rain mn
cm
humidity
%
barometer
mb
20260507060923 9 50 0.0 0.0 0.00 0.03 0.03 99 1016.2
20260507060419 9 50 0.0 0.0 0.00 0.03 0.03 99 1016.1
20260507055916 9 50 0.0 0.0 0.00 0.03 0.03 99 1016.1
20260507055410 9 50 0.0 0.0 0.00 0.03 0.03 99 1016.1
20260507054907 9 50 0.0 0.0 0.00 0.03 0.03 99 1016.3
20260507054403 10 50 0.0 0.0 0.00 0.03 0.03 99 1016.3
20260507053901 10 50 0.0 0.0 0.00 0.03 0.03 99 1016.2
20260507053358 10 50 0.0 0.0 0.00 0.03 0.03 99 1016.3
20260507052857 10 50 0.0 0.0 0.00 0.03 0.03 99 1016.4
20260507052354 10 50 0.0 0.0 0.00 0.03 0.03 99 1016.5
20260507051851 10 50 0.0 0.0 0.00 0.03 0.03 99 1016.4
20260507051348 10 50 0.0 0.0 0.18 0.03 0.03 99 1016.5
20260507050846 10 50 0.0 0.0 0.18 0.03 0.03 99 1016.4
20260507050343 10 50 0.0 0.0 0.00 0.00 0.00 99 1016.6
20260507045839 10 50 0.0 0.0 0.00 0.00 0.00 99 1016.7
20260507045335 10 50 0.0 0.0 0.00 0.00 0.00 99 1016.5
20260507044832 10 50 0.0 0.0 0.00 0.00 0.00 99 1016.4
20260507044329 10 50 0.0 0.0 0.00 0.00 0.00 99 1016.5
20260507043825 10 50 0.0 0.0 0.00 0.00 0.00 99 1016.5
20260507043321 10 50 0.0 0.0 0.00 0.00 0.00 99 1016.4
20260507042818 10 50 0.0 0.0 0.00 0.00 0.00 99 1016.4
20260507042313 10 50 0.0 0.0 0.00 0.00 0.00 99 1016.5
20260507041811 10 50 0.0 0.0 0.00 0.00 0.00 99 1016.5
20260507041307 10 50 0.0 0.0 0.00 0.00 0.00 99 1016.4
20260507040804 10 50 0.0 0.0 0.00 0.00 0.00 99 1016.4
20260507040300 10 50 0.0 0.0 0.00 0.00 0.00 99 1016.4
20260507035756 10 50 0.0 0.0 0.00 1.93 1.93 99 1016.3
20260507035252 10 50 0.0 0.0 0.00 1.93 1.93 98 1016.2
20260507034750 10 50 1.6 4.8 0.00 1.93 1.93 96 1016.1
20260507034246 11 57 1.6 6.4 0.18 1.93 1.93 96 1016.2
20260507033745 11 55 0.0 1.6 0.30 1.93 1.93 98 1016.2
20260507033242 11 55 0.0 3.2 0.13 1.91 1.91 99 1016.1
20260507032739 12 59 3.2 11.3 0.00 1.88 1.88 99 1016.0
20260507032235 12 47 0.0 0.0 0.00 1.88 1.88 99 1015.8
20260507031732 12 47 0.0 0.0 0.00 1.88 1.88 99 1015.9
20260507031228 12 47 0.0 0.0 0.00 1.88 1.88 99 1015.7
20260507030725 11 47 0.0 0.0 0.00 1.88 1.88 99 1015.5
20260507030223 11 47 0.0 0.0 0.00 1.88 1.88 99 1015.7
20260507025720 12 47 0.0 0.0 0.00 1.88 1.88 99 1015.6
20260507025217 12 47 0.0 0.0 0.00 1.88 1.88 99 1015.7
20260507024715 11 47 0.0 0.0 0.00 1.88 1.88 99 1016.0
20260507024212 11 47 0.0 0.0 0.00 1.88 1.88 99 1015.9
20260507023707 12 47 0.0 0.0 0.00 1.88 1.88 99 1016.0
20260507023205 12 47 0.0 0.0 0.00 1.88 1.88 99 1016.0
20260507022702 12 47 0.0 0.0 0.00 1.88 1.88 99 1016.3
20260507022157 12 47 0.0 0.0 0.00 1.88 1.88 99 1015.9
20260507021654 12 47 0.0 0.0 0.00 1.88 1.88 99 1015.6
20260507021149 12 47 0.0 0.0 0.00 1.88 1.88 99 1015.6
20260507020648 12 47 0.0 0.0 0.00 1.88 1.88 99 1015.6
20260507020144 12 47 0.0 0.0 0.00 1.88 1.88 99 1015.5
20260507015642 12 47 0.0 0.0 0.00 1.88 1.88 99 1015.3
20260507015139 12 47 0.0 0.0 0.00 1.88 1.88 99 1015.3
20260507014636 12 47 0.0 0.0 0.00 1.88 1.88 99 1015.4
20260507014132 12 47 0.0 0.0 0.00 1.88 1.88 99 1015.4
20260507013629 12 47 0.0 0.0 0.00 1.88 1.88 99 1014.9
20260507013125 12 47 0.0 0.0 0.00 1.88 1.88 99 1015.1
20260507012623 12 47 0.0 0.0 0.00 1.88 1.88 99 1015.4
20260507012118 12 47 0.0 0.0 0.00 1.88 1.88 99 1015.4
20260507011617 12 47 0.0 0.0 0.00 1.88 1.88 99 1015.0
20260507011113 12 47 0.0 0.0 0.00 1.88 1.88 99 1015.0
20260507010608 12 47 0.0 0.0 0.00 1.88 1.88 99 1014.9
20260507010104 12 47 0.0 0.0 0.00 1.88 1.88 99 1014.8
20260507005601 12 47 0.0 0.0 0.00 1.88 1.88 99 1014.8
20260507005057 12 47 0.0 0.0 0.00 1.88 1.88 99 1014.9
20260507004554 12 47 0.0 0.0 0.00 1.88 1.88 99 1015.0
20260507004052 12 47 0.0 0.0 0.00 1.88 1.88 99 1014.7
20260507003548 12 47 0.0 0.0 0.00 1.88 1.88 99 1014.8
20260507003043 12 47 0.0 0.0 0.00 1.88 1.88 99 1014.7
20260507002540 12 47 0.0 0.0 0.00 1.88 1.88 99 1014.8
20260507002036 12 47 0.0 0.0 0.00 1.88 1.88 99 1014.6
20260507001532 12 47 0.0 0.0 0.00 1.88 1.88 99 1014.9
20260507001025 12 47 0.0 0.0 0.00 1.88 1.88 99 1014.7
20260507000521 12 47 0.0 0.0 0.00 1.88 1.88 99 1014.8
20260507000016 12 47 0.0 0.0 0.00 1.88 1.88 99 1014.8
20260506235513 12 47 0.0 0.0 0.00 1.88 1.88 99 1014.3
20260506235009 12 47 0.0 0.0 0.00 1.88 1.88 98 1014.2
20260506234507 12 47 0.0 0.0 0.00 1.88 1.88 98 1013.9
20260506234004 12 47 0.0 0.0 0.00 1.88 1.88 98 1014.2
20260506233500 12 47 0.0 0.0 0.00 1.88 1.88 97 1014.1
20260506232956 12 47 0.0 0.0 0.00 1.88 1.88 97 1014.4
20260506232453 12 47 0.0 0.0 0.00 1.88 1.88 97 1014.9
20260506231949 13 47 0.0 0.0 0.00 1.88 1.88 97 1014.6
20260506231446 13 47 0.0 0.0 0.00 1.88 1.88 96 1014.6
20260506230943 13 47 0.0 0.0 0.00 1.88 1.88 95 1014.7
20260506230440 13 47 0.0 0.0 0.00 1.88 1.88 95 1014.4
20260506225936 13 47 0.0 0.0 0.00 1.88 1.88 95 1014.7
20260506225434 13 47 0.0 0.0 0.00 1.88 1.88 94 1014.7
20260506224931 13 47 0.0 0.0 0.00 1.88 1.88 95 1014.7
20260506224428 13 47 0.0 0.0 0.00 1.88 1.88 94 1014.6
20260506223924 13 47 0.0 0.0 0.00 1.88 1.88 94 1014.4
20260506223420 13 47 0.0 0.0 0.00 1.88 1.88 93 1014.6
20260506222917 13 47 0.0 0.0 0.00 1.88 1.88 93 1014.7
20260506222414 13 47 0.0 0.0 0.00 1.88 1.88 92 1014.4
20260506221911 13 47 0.0 0.0 0.00 1.88 1.88 92 1014.4
20260506221408 14 47 0.0 0.0 0.00 1.88 1.88 91 1014.3
20260506220900 13 47 0.0 1.6 0.00 1.88 1.88 90 1014.2
20260506220356 14 47 0.0 1.6 0.00 1.88 1.88 90 1014.4
20260506215853 14 47 0.0 0.0 0.00 1.88 1.88 89 1014.3
20260506215348 14 47 0.0 0.0 0.00 1.88 1.88 88 1014.1
20260506214844 14 47 0.0 1.6 0.00 1.88 1.88 88 1014.0
20260506214341 14 47 0.0 1.6 0.00 1.88 1.88 87 1014.2
20260506213839 14 47 1.6 1.6 0.00 1.88 1.88 90 1014.1
20260506213336 14 47 1.6 3.2 0.00 1.88 1.88 89 1013.8
20260506212834 14 47 0.0 1.6 0.00 1.88 1.88 90 1014.0
20260506212329 14 47 0.0 3.2 0.00 1.88 1.88 90 1014.1
20260506211824 14 47 1.6 1.6 0.00 1.88 1.88 89 1014.0
20260506211321 14 47 0.0 0.0 0.00 1.88 1.88 88 1013.9
20260506210818 14 47 0.0 0.0 0.00 1.88 1.88 87 1014.0
20260506210309 14 47 0.0 1.6 0.00 1.88 1.88 88 1014.2
20260506205806 14 47 0.0 1.6 0.00 1.88 1.88 90 1014.0
20260506205305 13 47 0.0 1.6 0.00 1.88 1.88 88 1014.0
20260506204753 13 47 0.0 3.2 0.00 1.88 1.88 88 1014.0
20260506204251 13 47 0.0 1.6 0.00 1.88 1.88 88 1014.1
20260506203748 14 47 0.0 0.0 0.00 1.88 1.88 88 1014.2
20260506203245 13 47 0.0 0.0 0.00 1.88 1.88 90 1014.0
20260506202742 13 47 0.0 1.6 0.00 1.88 1.88 93 1013.8
20260506202239 13 47 0.0 0.0 0.00 1.88 1.88 88 1013.8
20260506201736 13 47 0.0 1.6 0.00 1.88 1.88 89 1013.8
20260506201232 13 59 0.0 1.6 0.00 1.88 1.88 89 1013.8
20260506200729 13 59 0.0 0.0 0.00 1.88 1.88 90 1013.9
20260506200225 13 59 1.6 1.6 0.00 1.88 1.88 91 1013.9
20260506195721 13 59 0.0 1.6 0.00 1.88 1.88 91 1013.8
20260506195218 13 59 0.0 1.6 0.00 1.88 1.88 90 1013.6
20260506194710 13 59 0.0 0.0 0.00 1.88 1.88 92 1013.8
20260506194206 12 59 0.0 3.2 0.00 1.88 1.88 90 1013.8
20260506193704 13 59 0.0 0.0 0.00 1.88 1.88 91 1013.6
20260506193201 13 59 1.6 3.2 0.00 1.88 1.88 90 1013.8
20260506192658 13 92 1.6 3.2 0.00 1.88 1.88 90 1013.8
20260506192154 13 93 0.0 3.2 0.00 1.88 1.88 90 1013.8
20260506191651 12 93 0.0 1.6 0.00 1.88 1.88 93 1013.7
20260506191147 12 93 0.0 0.0 0.00 1.88 1.88 92 1013.7
20260506190639 12 93 0.0 1.6 0.00 1.88 1.88 92 1013.7
20260506190135 12 94 1.6 3.2 0.00 1.88 1.88 94 1013.6
20260506185633 12 94 0.0 1.6 0.00 1.88 1.88 95 1013.5
20260506185129 12 93 1.6 3.2 0.00 1.88 1.88 95 1013.7
20260506184626 12 109 0.0 3.2 0.00 1.88 1.88 94 1013.6
20260506184124 12 85 1.6 4.8 0.00 1.88 1.88 94 1013.8
20260506183620 12 86 1.6 1.6 0.00 1.88 1.88 95 1013.7
20260506183116 12 80 1.6 1.6 0.00 1.88 1.88 94 1013.7
20260506182613 12 90 0.0 1.6 0.00 1.88 1.88 94 1013.7
20260506182105 11 117 0.0 4.8 0.00 1.88 1.88 94 1013.5
20260506181603 12 282 1.6 6.4 0.00 1.88 1.88 93 1013.5
20260506181059 12 48 6.4 9.7 0.00 1.88 1.88 94 1013.6
20260506180555 12 151 0.0 6.4 0.00 1.88 1.88 93 1013.4
20260506180052 12 35 0.0 4.8 0.00 1.88 1.88 95 1013.1
20260506175548 11 72 3.2 6.4 0.00 1.88 1.88 96 1013.5
20260506175039 11 54 1.6 6.4 0.00 1.88 1.88 96 1013.7
20260506174538 11 126 1.6 3.2 0.00 1.88 1.88 97 1013.6
20260506174034 11 60 1.6 4.8 0.00 1.88 1.88 96 1013.5
20260506173532 12 64 3.2 9.7 0.00 1.88 1.88 96 1013.7
20260506173028 12 30 4.8 4.8 0.00 1.88 1.88 96 1013.7
20260506172526 12 175 3.2 4.8 0.00 1.88 1.88 96 1013.4
20260506172021 12 13 0.0 3.2 0.00 1.88 1.88 96 1013.6
20260506171519 12 262 0.0 3.2 0.00 1.88 1.88 96 1013.3
20260506171017 12 258 3.2 3.2 0.00 1.88 1.88 97 1013.4
20260506170514 12 19 1.6 3.2 0.00 1.88 1.88 96 1013.2
20260506170006 12 41 4.8 4.8 0.00 1.88 1.88 95 1013.1
20260506165504 12 22 1.6 11.3 0.00 1.88 1.88 96 1013.4
20260506164959 12 156 0.0 3.2 0.00 1.88 1.88 97 1013.4
20260506164456 13 67 4.8 11.3 0.00 1.88 1.88 96 1013.4
20260506163954 12 242 1.6 1.6 0.00 1.88 1.88 98 1013.2
20260506163449 12 237 0.0 1.6 0.00 1.88 1.88 99 1013.3
20260506162944 12 50 0.0 1.6 0.00 1.88 1.88 98 1013.1
20260506162442 12 50 0.0 0.0 0.00 1.88 1.88 99 1013.4
20260506161934 12 50 1.6 3.2 0.00 1.88 1.88 98 1013.4
20260506161432 12 41 0.0 1.6 0.00 1.88 1.88 98 1013.2
20260506160928 12 41 0.0 3.2 0.00 1.88 1.88 98 1013.2
20260506160425 12 51 0.0 3.2 0.00 1.88 1.88 98 1013.3
20260506155923 12 74 1.6 3.2 0.00 1.88 1.88 98 1013.1
20260506155420 12 57 0.0 4.8 0.00 1.88 1.88 98 1013.1
20260506153542 12 42 1.6 6.4 0.00 1.88 1.88 98 1012.5
20260506153039 13 74 3.2 6.4 0.18 1.88 1.88 99 1012.4
20260506152536 13 60 0.0 4.8 0.18 1.88 1.88 99 1012.3
20260506152034 13 159 0.0 4.8 0.00 1.85 1.85 99 1012.4
20260506151532 13 61 1.6 4.8 0.13 1.85 1.85 99 1012.1
20260506151029 14 153 1.6 9.7 0.30 1.85 1.85 99 1011.9
20260506150525 15 218 3.2 4.8 0.18 1.83 1.83 99 1011.7
20260506150022 15 73 1.6 1.6 0.00 1.80 1.80 99 1011.5
20260506145519 15 73 0.0 3.2 0.00 1.80 1.80 99 1011.4
20260506145016 15 73 0.0 0.0 0.00 1.80 1.80 99 1011.2
20260506144513 15 73 0.0 0.0 0.00 1.80 1.80 99 1011.3
20260506144011 15 73 1.6 1.6 0.00 1.80 1.80 99 1011.3
20260506143508 15 73 0.0 0.0 0.00 1.80 1.80 99 1011.2
20260506143006 15 73 0.0 0.0 0.00 1.80 1.80 99 1011.3
20260506142503 15 73 0.0 0.0 0.00 1.80 1.80 99 1011.1
20260506142001 15 73 0.0 0.0 0.13 1.80 1.80 99 1011.2
20260506141500 15 73 0.0 1.6 0.13 1.80 1.80 99 1011.0
20260506140958 15 73 0.0 0.0 0.00 1.78 1.78 99 1011.0
20260506140455 15 73 0.0 0.0 0.00 1.78 1.78 99 1011.0
20260506135951 15 73 0.0 1.6 0.00 1.78 1.78 99 1010.7
20260506135448 15 73 0.0 0.0 0.00 1.78 1.78 99 1010.9
20260506134944 15 73 0.0 0.0 0.00 1.78 1.78 99 1010.4
20260506134440 15 74 3.2 3.2 0.00 1.78 1.78 99 1010.2
20260506133937 15 84 0.0 0.0 0.00 1.78 1.78 99 1010.0
20260506133434 15 84 0.0 0.0 0.18 1.78 1.78 99 1010.1
20260506132931 15 84 0.0 1.6 0.18 1.78 1.78 99 1010.0
20260506132428 15 84 0.0 0.0 0.00 1.75 1.75 99 1010.4
20260506131925 15 84 0.0 0.0 0.13 1.75 1.75 99 1010.2
20260506131422 14 84 0.0 0.0 0.30 1.75 1.75 99 1010.4
20260506130919 14 84 0.0 0.0 0.18 1.73 1.73 99 1010.2
20260506130415 14 84 0.0 1.6 0.00 1.70 1.70 99 1010.4
20260506125914 14 84 0.0 0.0 0.00 1.70 1.70 99 1010.2
20260506125412 14 84 0.0 0.0 0.00 1.70 1.70 99 1010.2
20260506124910 14 84 0.0 1.6 0.00 1.70 1.70 99 1010.1
20260506124406 14 84 0.0 0.0 0.00 1.70 1.70 99 1010.1
20260506123904 14 84 0.0 0.0 0.13 1.70 1.70 99 1010.0
20260506123402 14 84 0.0 0.0 0.13 1.70 1.70 99 1010.0
20260506122859 14 84 0.0 0.0 0.00 1.68 1.68 99 1010.0
20260506122356 14 84 0.0 0.0 0.00 1.68 1.68 99 1010.0
20260506121854 14 84 3.2 3.2 0.00 1.68 1.68 99 1009.9
20260506121351 14 173 0.0 1.6 0.00 1.68 1.68 99 1009.9
20260506120848 14 59 0.0 0.0 0.00 1.68 1.68 99 1009.7
20260506120345 14 59 0.0 0.0 0.00 1.68 1.68 99 1009.8
20260506115843 14 59 0.0 1.6 0.18 1.68 1.68 99 1009.8
20260506115341 14 59 0.0 0.0 0.18 1.68 1.68 99 1009.8
20260506114839 14 76 0.0 0.0 0.18 1.65 1.65 99 1009.8
20260506114336 14 86 0.0 0.0 0.30 1.65 1.65 99 1009.7
20260506113835 13 87 0.0 0.0 0.43 1.63 1.63 99 1010.1
20260506113332 13 87 0.0 0.0 0.30 1.57 1.57 99 1009.9
20260506112828 13 87 0.0 0.0 0.18 1.55 1.55 99 1010.2
20260506112325 13 87 0.0 0.0 0.00 1.52 1.52 99 1010.0
20260506111823 13 88 0.0 0.0 0.13 1.52 1.52 99 1009.9
20260506111321 13 88 0.0 0.0 0.13 1.52 1.52 99 1009.8
20260506110818 13 88 0.0 0.0 0.18 1.50 1.50 99 1009.7
20260506110315 13 88 0.0 0.0 0.18 1.50 1.50 99 1009.6
20260506105812 13 88 0.0 0.0 0.00 1.47 1.47 99 1009.6
20260506105308 13 88 0.0 0.0 0.13 1.47 1.47 99 1009.6
20260506104806 13 88 0.0 0.0 0.30 1.47 1.47 99 1009.5
20260506104304 13 88 0.0 0.0 0.48 1.45 1.45 99 1009.4
20260506103801 13 168 0.0 0.0 0.66 1.40 1.40 99 1009.4
20260506103258 13 163 0.0 0.0 0.48 1.35 1.35 99 1009.6
20260506102756 13 164 0.0 0.0 0.30 1.30 1.30 99 1009.4
20260506102254 13 163 0.0 0.0 0.30 1.27 1.27 99 1009.2
20260506101750 13 165 0.0 0.0 0.30 1.24 1.24 99 1009.3
20260506101247 13 144 0.0 1.6 0.48 1.22 1.22 99 1009.2
20260506100745 13 207 0.0 0.0 0.43 1.19 1.19 99 1009.0
20260506100242 13 174 0.0 0.0 0.13 1.14 1.14 99 1009.0
20260506095741 13 174 0.0 0.0 0.18 1.12 1.12 99 1008.9
20260506095238 13 169 0.0 0.0 0.48 1.12 1.12 99 1008.9
20260506094734 13 169 0.0 0.0 0.43 1.09 1.09 99 1008.9
20260506094232 13 150 0.0 0.0 0.48 1.04 1.04 99 1009.1
20260506093731 13 158 0.0 0.0 0.79 0.99 0.99 99 1009.1
20260506093227 13 166 0.0 0.0 0.79 0.94 0.94 99 1009.5
20260506092725 13 140 0.0 0.0 0.30 0.86 0.86 99 1009.4
20260506092223 13 164 0.0 0.0 0.00 0.81 0.81 99 1009.2
20260506091720 13 186 0.0 0.0 0.13 0.81 0.81 99 1009.2
20260506091217 13 200 0.0 0.0 0.30 0.81 0.81 99 1009.4
20260506090715 13 200 0.0 0.0 0.18 0.79 0.79 99 1009.5
20260506090212 13 207 0.0 0.0 0.13 0.76 0.76 99 1009.8
20260506085709 13 181 0.0 0.0 0.30 0.76 0.76 99 1010.0
20260506085205 13 204 0.0 0.0 0.48 0.74 0.74 99 1010.1
20260506084702 13 213 0.0 0.0 0.79 0.69 0.69 99 1009.9
20260506084158 13 187 0.0 0.0 0.48 0.56 0.56 99 1009.9
20260506083656 13 187 0.0 0.0 0.48 0.56 0.56 99 1009.9
20260506083154 13 187 0.0 0.0 0.30 0.48 0.48 99 1010.0
20260506082651 13 187 0.0 0.0 0.89 0.48 0.48 99 1009.8
20260506082150 13 186 0.0 0.0 0.79 0.43 0.43 99 1009.9
20260506081649 13 209 0.0 0.0 0.48 0.33 0.33 99 1009.9
20260506081146 13 170 0.0 0.0 0.30 0.30 0.30 99 1009.5
20260506080644 13 170 0.0 0.0 0.00 0.25 0.25 99 1009.5
20260506080140 13 170 0.0 0.0 0.13 0.25 0.25 99 1009.6
20260506073125 13 186 0.0 0.0 0.00 0.20 0.20 99 1009.6
20260506072621 13 186 0.0 0.0 0.13 0.20 0.20 99 1009.6
20260506072119 13 186 0.0 0.0 0.30 0.20 0.20 99 1009.6
20260506071617 13 186 0.0 0.0 0.18 0.18 0.18 99 1009.6
20260506071114 13 174 0.0 0.0 0.30 0.15 0.15 99 1009.6
20260506070611 13 181 0.0 0.0 0.43 0.15 0.15 99 1010.1
20260506070108 13 199 0.0 0.0 0.13 0.10 0.10 99 1010.1
20260506062045 13 190 0.0 0.0 0.00 0.05 0.05 99 1009.7
20260506061541 13 190 0.0 0.0 0.00 0.05 0.05 99 1009.7
20260506061039 13 190 0.0 0.0 0.00 0.05 0.05 99 1009.5